Location: Berkeley
(37.8716°N, 122.2727°W)
Time: 15:46:05
(UTC-07:00)

Tiangong 2 - Pass Details

Date: 22 February 2019
Orbit: 379 x 390 km, 42.8° (Epoch: 18 March)

Event Time Altitude Azimuth Distance (km) Brightness Sun altitude
Rises 19:06:58 0° 275° (W) 2,252 6.8 -14.8°
Reaches altitude 10° 19:10:11 10° 240° (WSW) 1,391 4.8 -15.5°
Maximum altitude 19:11:15 11° 220° (SW) 1,312 4.3 -15.7°
Drops below altitude 10° 19:12:20 10° 199° (SSW) 1,386 4.1 -15.9°
Enters shadow 19:14:54 - 168° (SSE) 2,021 4.6 -16.4°
